STARLINK-35923, 66641

Orbit data source: Space-Track

STARLINK-35923, 66641 is a payload satellite owned by SpaceX/Seattle (US) in LEO that was launched on Sun, 23 Nov 2025 UTC via an FALCON 9 launch vehicle from the Air Force Western Test Range (AFWTR). Payload-class satellites include a variety of spacecraft equipped with specific instruments for various scientific and technological missions. These include communications satellites like Starlink; space stations such as the ISS; scientific satellites like the Hubble; Earth observation satellites from companies like Planet Labs, Umbra, and HawkEye 360; GPS; miniature CubeSats for education and research; and military/defense satellites.

Loading next visibility...
Identifier
66641, 2025-271AA
Orbit
LEO
Country
Flag of USUS
Related business
Manufacturer
SpaceX/Seattle
Mission
Operational Commercial Communications
Bus & Motor
STARLINK V2MO, Unknown motor
Mass
575 kg wet, ~530 kg dry
Launch date (UTC)
2025-11-23 (2 months ago)
Launch vehicle
FALCON 9
Launch site
Air Force Western Test Range (AFWTR)
Object type
Payload
Rocket body
Debris
Shape & HBR
Box + 2 Pan, 17.7 m
Radar Cross Section
36.964 m²

Expand to show TLE details & history
Last TLE update: 5 hours ago

TLE from 5 hours ago
0 STARLINK-35923
1 66641U 25271AA  26037.08968659 -.00006644  00000-0 -21277-3 0  9993
2 66641  53.1579 287.0589 0001118 100.6467 259.4659 15.30142401 12722
Epoch: 2026-02-06T02:09Z
TLE epoch observation values (Epoch: 2026-02-06T02:09:08.921Z)
Latitude
-0.00007°
Longitude
118.53912°
Altitude
476.427 km
Speed
7.629 km/s
True Right ascension
19h 08m 14s
True Declination
0° 00' 00"
Sunlit
Object was in daylight at epoch
Visualization orbit readout
Latitude
Unknown
Longitude
Unknown
Altitude
Unknown
Speed
Unknown
Apparent Right ascension
Unknown
Apparent Declination
Unknown
Sunlit
N/A
Visualization observer readout
Local Sidereal Time
09:06:48
Azimuth
Unknown
Elevation
Unknown
Doppler factor
Unknown
Orbital elements
Apogee altitude
476.41 km
Perigee altitude
474.878 km
Semi-major axis
6,853.781 km
Eccentricity
0.00011
Inclination
53.1579°
RAAN
287.0589°
Arg. of periapsis
100.6467°
True anomaly
259.4533°
Mean anomaly
259.4659°
Eccentric anomaly
259.4596°
Mean motion
3.82514 °/min
Orbital period
94.11 mins
BSTAR
-0.00021277
Loading maneuver chart data...
Computing Atmospheric mass density...
Loading historical data...
Loading historical data...
Loading historical data...
Loading historical data...
Loading historical data...
Loading historical data...
Loading historical data...

Documentation

Showing up to 5 results
|